NOZ1125 WBKK-WAAA

Flight info

Callsign NOZ1125
Flight time 1h 56m
Altitude 38000
Route ELPOX M522 MAMOK DCT BPN DCT GAMAL
Aircraft B738/M-SDE2E3FGHIRWXY/LB1

Departure

Time 2026-05-09 00:01
Airport Kota Kinabalu International Airport (WBKK)

Arrival

Time 2026-05-09 01:57
Airport Sultan Hasanuddin International Airport (WAAA)
Time Latitude Longitude Altitude Speed Heading
2026-05-08 23:55 5.92239 116.04894 28 ft 0 kts 338°
2026-05-08 23:56 5.92259 116.04886 28 ft 7 kts 337°
2026-05-08 23:56 5.92322 116.04860 28 ft 10 kts 338°
2026-05-08 23:56 5.92388 116.04833 28 ft 10 kts 325°
2026-05-08 23:57 5.92414 116.04771 28 ft 10 kts 262°
2026-05-08 23:57 5.92365 116.04729 28 ft 10 kts 202°
2026-05-08 23:57 5.92292 116.04698 28 ft 14 kts 203°
2026-05-08 23:57 5.92192 116.04656 28 ft 16 kts 202°
2026-05-08 23:58 5.92088 116.04613 28 ft 16 kts 203°
2026-05-08 23:58 5.91989 116.04571 28 ft 15 kts 202°
2026-05-08 23:58 5.91894 116.04531 28 ft 15 kts 203°
2026-05-08 23:58 5.91809 116.04497 28 ft 10 kts 201°
2026-05-08 23:59 5.91784 116.04440 28 ft 10 kts 288°
2026-05-08 23:59 5.91810 116.04377 28 ft 10 kts 294°
2026-05-08 23:59 5.91849 116.04328 28 ft 9 kts 346°
2026-05-08 23:59 5.91908 116.04348 28 ft 9 kts 22°
2026-05-09 00:00 5.91965 116.04373 28 ft 9 kts 22°
2026-05-09 00:00 5.92021 116.04397 28 ft 9 kts 22°
2026-05-09 00:00 5.92168 116.04459 28 ft 49 kts 23°
2026-05-09 00:00 5.92665 116.04669 28 ft 105 kts 23°
2026-05-09 00:01 5.93483 116.05019 29 ft 149 kts 24°
2026-05-09 00:01 5.94496 116.05447 322 ft 158 kts 21°
2026-05-09 00:01 5.95549 116.05822 714 ft 166 kts 22°
2026-05-09 00:01 5.96571 116.06357 1112 ft 169 kts 34°
2026-05-09 00:02 5.97526 116.07047 1637 ft 168 kts 39°
2026-05-09 00:02 5.98465 116.07834 1917 ft 187 kts 41°
2026-05-09 00:02 5.99569 116.08676 2062 ft 211 kts 26°
2026-05-09 00:02 6.00956 116.09306 2217 ft 228 kts 35°
2026-05-09 00:03 6.01898 116.10584 2346 ft 241 kts 76°
2026-05-09 00:03 6.01825 116.12287 2479 ft 257 kts 114°
2026-05-09 00:03 6.00677 116.13652 2910 ft 263 kts 150°
2026-05-09 00:03 5.98954 116.14248 3504 ft 264 kts 169°
2026-05-09 00:04 5.97131 116.14516 4069 ft 267 kts 173°
2026-05-09 00:04 5.95268 116.14717 4650 ft 271 kts 174°
2026-05-09 00:04 5.93381 116.14906 5204 ft 274 kts 174°
2026-05-09 00:04 5.91471 116.15097 5765 ft 277 kts 173°
2026-05-09 00:05 5.89550 116.15294 6350 ft 279 kts 173°
2026-05-09 00:05 5.87605 116.15496 6934 ft 281 kts 173°
2026-05-09 00:05 5.85645 116.15704 7509 ft 283 kts 172°
2026-05-09 00:05 5.83679 116.15915 8112 ft 285 kts 172°
2026-05-09 00:06 5.81722 116.16128 8710 ft 287 kts 172°
2026-05-09 00:06 5.79723 116.16347 9342 ft 290 kts 171°
2026-05-09 00:06 5.77716 116.16567 9971 ft 292 kts 171°
2026-05-09 00:06 5.75664 116.16796 10355 ft 303 kts 171°
2026-05-09 00:07 5.73500 116.17037 10504 ft 323 kts 171°
2026-05-09 00:07 5.71201 116.17294 10693 ft 339 kts 171°
2026-05-09 00:07 5.68835 116.17557 11170 ft 344 kts 171°
2026-05-09 00:07 5.66452 116.17820 11757 ft 346 kts 172°
2026-05-09 00:08 5.64041 116.18087 12303 ft 350 kts 171°
2026-05-09 00:08 5.61640 116.18353 12878 ft 353 kts 171°
2026-05-09 00:08 5.59188 116.18624 13466 ft 356 kts 171°
2026-05-09 00:08 5.56712 116.18899 13995 ft 359 kts 171°
2026-05-09 00:09 5.54219 116.19175 14518 ft 362 kts 171°
2026-05-09 00:09 5.51704 116.19454 15056 ft 364 kts 171°
2026-05-09 00:09 5.49177 116.19735 15578 ft 367 kts 171°
2026-05-09 00:09 5.46626 116.20018 16098 ft 370 kts 171°
2026-05-09 00:10 5.44061 116.20302 16630 ft 372 kts 171°
2026-05-09 00:10 5.41484 116.20589 17142 ft 375 kts 171°
2026-05-09 00:10 5.38878 116.20878 17624 ft 378 kts 171°
2026-05-09 00:10 5.36252 116.21169 18108 ft 381 kts 172°
2026-05-09 00:11 5.33606 116.21463 18525 ft 384 kts 171°
2026-05-09 00:11 5.30945 116.21758 18939 ft 386 kts 172°
2026-05-09 00:11 5.28293 116.22052 19332 ft 389 kts 172°
2026-05-09 00:11 5.25577 116.22354 19730 ft 392 kts 172°
2026-05-09 00:12 5.22856 116.22656 20103 ft 395 kts 172°
2026-05-09 00:12 5.20112 116.22960 20491 ft 398 kts 172°
2026-05-09 00:12 5.17338 116.23268 20895 ft 400 kts 172°
2026-05-09 00:12 5.14556 116.23576 21271 ft 403 kts 172°
2026-05-09 00:13 5.11781 116.23884 21648 ft 406 kts 172°
2026-05-09 00:13 5.08961 116.24197 21981 ft 410 kts 172°
2026-05-09 00:13 5.06116 116.24512 22312 ft 413 kts 172°
2026-05-09 00:13 5.03248 116.24830 22691 ft 415 kts 172°
2026-05-09 00:14 5.00365 116.25150 23018 ft 418 kts 172°
2026-05-09 00:14 4.97462 116.25471 23346 ft 421 kts 172°
2026-05-09 00:14 4.94541 116.25795 23646 ft 423 kts 172°
2026-05-09 00:14 4.91638 116.26116 23947 ft 425 kts 172°
2026-05-09 00:15 4.88689 116.26443 24256 ft 426 kts 172°
2026-05-09 00:15 4.85739 116.26770 24548 ft 428 kts 172°
2026-05-09 00:15 4.82771 116.27099 24824 ft 430 kts 173°
2026-05-09 00:15 4.79775 116.27431 25100 ft 432 kts 172°
2026-05-09 00:16 4.76784 116.27762 25379 ft 433 kts 173°
2026-05-09 00:16 4.73813 116.28091 25641 ft 435 kts 173°
2026-05-09 00:16 4.70786 116.28426 25917 ft 437 kts 173°
2026-05-09 00:16 4.67746 116.28763 26184 ft 439 kts 173°
2026-05-09 00:17 4.64710 116.29099 26451 ft 440 kts 173°
2026-05-09 00:17 4.61655 116.29437 26703 ft 442 kts 173°
2026-05-09 00:17 4.58586 116.29777 26950 ft 444 kts 173°
2026-05-09 00:17 4.55512 116.30117 27198 ft 446 kts 173°
2026-05-09 00:18 4.52464 116.30455 27442 ft 447 kts 173°
2026-05-09 00:18 4.49361 116.30798 27692 ft 449 kts 173°
2026-05-09 00:18 4.46243 116.31143 27937 ft 450 kts 173°
2026-05-09 00:18 4.43120 116.31489 28171 ft 452 kts 173°
2026-05-09 00:19 4.39997 116.31834 28458 ft 452 kts 173°
2026-05-09 00:19 4.36866 116.32180 28706 ft 453 kts 173°
2026-05-09 00:19 4.33721 116.32528 28901 ft 456 kts 173°
2026-05-09 00:19 4.30553 116.32879 29098 ft 458 kts 173°
2026-05-09 00:20 4.27416 116.33226 29319 ft 459 kts 173°
2026-05-09 00:20 4.24236 116.33578 29535 ft 460 kts 173°
2026-05-09 00:20 4.21043 116.33931 29747 ft 461 kts 173°
2026-05-09 00:20 4.17845 116.34285 29933 ft 463 kts 173°
2026-05-09 00:21 4.14623 116.34641 30105 ft 465 kts 173°
2026-05-09 00:21 4.11437 116.34993 30258 ft 466 kts 173°
2026-05-09 00:21 4.08203 116.35351 30421 ft 467 kts 173°
2026-05-09 00:21 4.04967 116.35709 30559 ft 469 kts 173°
2026-05-09 00:22 4.01709 116.36069 30725 ft 470 kts 173°
2026-05-09 00:22 3.98454 116.36429 30924 ft 470 kts 173°
2026-05-09 00:22 3.95238 116.36784 31175 ft 469 kts 173°
2026-05-09 00:22 3.92002 116.37142 31443 ft 467 kts 173°
2026-05-09 00:23 3.88777 116.37498 31690 ft 466 kts 174°
2026-05-09 00:23 3.85554 116.37854 31929 ft 465 kts 174°
2026-05-09 00:23 3.82333 116.38210 32165 ft 464 kts 174°
2026-05-09 00:23 3.79126 116.38564 32435 ft 463 kts 174°
2026-05-09 00:24 3.75914 116.38919 32667 ft 463 kts 174°
2026-05-09 00:24 3.72704 116.39274 32864 ft 463 kts 174°
2026-05-09 00:24 3.69542 116.39623 33099 ft 462 kts 174°
2026-05-09 00:24 3.66352 116.39975 33387 ft 461 kts 174°
2026-05-09 00:25 3.63167 116.40327 33661 ft 459 kts 174°
2026-05-09 00:25 3.59996 116.40677 33921 ft 458 kts 174°
2026-05-09 00:25 3.56818 116.41028 34112 ft 458 kts 174°
2026-05-09 00:25 3.53652 116.41377 34317 ft 458 kts 174°
2026-05-09 00:26 3.50486 116.41727 34501 ft 458 kts 174°
2026-05-09 00:26 3.47321 116.42076 34735 ft 456 kts 174°
2026-05-09 00:26 3.44175 116.42423 34975 ft 454 kts 174°
2026-05-09 00:26 3.41034 116.42770 35185 ft 454 kts 174°
2026-05-09 00:27 3.37894 116.43117 35409 ft 453 kts 174°
2026-05-09 00:27 3.34768 116.43462 35618 ft 451 kts 174°
2026-05-09 00:27 3.31680 116.43803 35810 ft 451 kts 174°
2026-05-09 00:27 3.28563 116.44147 35999 ft 450 kts 174°
2026-05-09 00:28 3.25452 116.44490 36184 ft 449 kts 174°
2026-05-09 00:28 3.22336 116.44834 36385 ft 449 kts 174°
2026-05-09 00:28 3.19238 116.45176 36572 ft 448 kts 174°
2026-05-09 00:28 3.16140 116.45517 36740 ft 447 kts 174°
2026-05-09 00:29 3.13049 116.45859 36926 ft 447 kts 174°
2026-05-09 00:29 3.09952 116.46200 37116 ft 446 kts 174°
2026-05-09 00:29 3.06868 116.46541 37292 ft 445 kts 174°
2026-05-09 00:29 3.03793 116.46880 37430 ft 445 kts 174°
2026-05-09 00:30 3.00747 116.47216 37558 ft 445 kts 174°
2026-05-09 00:30 2.97669 116.47555 37726 ft 444 kts 174°
2026-05-09 00:30 2.94597 116.47894 37893 ft 443 kts 174°
2026-05-09 00:31 2.88441 116.48573 37929 ft 446 kts 174°
2026-05-09 00:31 2.82277 116.49252 37926 ft 445 kts 174°
2026-05-09 00:32 2.76141 116.49929 37937 ft 443 kts 174°
2026-05-09 00:32 2.70011 116.50605 37916 ft 442 kts 174°
2026-05-09 00:33 2.63896 116.51279 37926 ft 442 kts 173°
2026-05-09 00:33 2.57825 116.51949 37929 ft 442 kts 173°
2026-05-09 00:34 2.51689 116.52625 37933 ft 442 kts 173°
2026-05-09 00:34 2.45557 116.53301 37938 ft 444 kts 173°
2026-05-09 00:35 2.39411 116.53978 37934 ft 445 kts 173°
2026-05-09 00:35 2.33283 116.54653 37941 ft 446 kts 173°
2026-05-09 00:36 2.27099 116.55335 37943 ft 447 kts 173°
2026-05-09 00:36 2.20905 116.56018 37942 ft 448 kts 173°
2026-05-09 00:37 2.14693 116.56702 37936 ft 449 kts 173°
2026-05-09 00:37 2.08529 116.57380 37935 ft 448 kts 173°
2026-05-09 00:38 2.02315 116.58065 37940 ft 448 kts 173°
2026-05-09 00:38 1.96110 116.58749 37942 ft 447 kts 173°
2026-05-09 00:39 1.89972 116.59425 37945 ft 446 kts 173°
2026-05-09 00:39 1.83814 116.60103 37946 ft 445 kts 173°
2026-05-09 00:40 1.77663 116.60780 37947 ft 444 kts 173°
2026-05-09 00:40 1.71531 116.61455 37946 ft 443 kts 173°
2026-05-09 00:41 1.62350 116.62466 37947 ft 442 kts 173°
2026-05-09 00:41 1.56219 116.63141 37941 ft 442 kts 173°
2026-05-09 00:42 1.50132 116.63811 37936 ft 443 kts 173°
2026-05-09 00:42 1.45032 116.64373 37940 ft 443 kts 173°
2026-05-09 00:43 1.38893 116.65048 37938 ft 444 kts 173°
2026-05-09 00:43 1.32731 116.65726 37937 ft 445 kts 173°
2026-05-09 00:44 1.26561 116.66406 37934 ft 446 kts 173°
2026-05-09 00:44 1.20379 116.67086 37929 ft 447 kts 173°
2026-05-09 00:45 1.14182 116.67768 37931 ft 448 kts 173°
2026-05-09 00:45 1.07989 116.68449 37933 ft 448 kts 173°
2026-05-09 00:46 1.01822 116.69128 37929 ft 448 kts 173°
2026-05-09 00:46 0.95623 116.69810 37928 ft 448 kts 173°
2026-05-09 00:47 0.89428 116.70492 37925 ft 448 kts 173°
2026-05-09 00:47 0.83226 116.71174 37922 ft 447 kts 173°
2026-05-09 00:48 0.77041 116.71855 37918 ft 447 kts 173°
2026-05-09 00:48 0.70897 116.72531 37921 ft 446 kts 173°
2026-05-09 00:49 0.64720 116.73210 37917 ft 446 kts 173°
2026-05-09 00:49 0.58555 116.73888 37916 ft 445 kts 173°
2026-05-09 00:50 0.52388 116.74567 37909 ft 445 kts 173°
2026-05-09 00:50 0.46264 116.75241 37913 ft 444 kts 173°
2026-05-09 00:51 0.40112 116.75918 37910 ft 444 kts 173°
2026-05-09 00:51 0.33969 116.76593 37909 ft 444 kts 173°
2026-05-09 00:52 0.27822 116.77269 37906 ft 444 kts 173°
2026-05-09 00:52 0.21664 116.77947 37903 ft 444 kts 173°
2026-05-09 00:53 0.15557 116.78619 37902 ft 445 kts 173°
2026-05-09 00:53 0.09394 116.79297 37901 ft 445 kts 173°
2026-05-09 00:54 0.03240 116.79973 37903 ft 445 kts 173°
2026-05-09 00:54 -0.02929 116.80652 37904 ft 445 kts 173°
2026-05-09 00:55 -0.09098 116.81331 37902 ft 446 kts 173°
2026-05-09 00:55 -0.15268 116.82010 37891 ft 446 kts 173°
2026-05-09 00:56 -0.21438 116.82688 37896 ft 446 kts 173°
2026-05-09 00:56 -0.27605 116.83367 37890 ft 446 kts 173°
2026-05-09 00:57 -0.33733 116.84040 37892 ft 446 kts 173°
2026-05-09 00:57 -0.39904 116.84720 37897 ft 446 kts 173°
2026-05-09 00:58 -0.46074 116.85399 37886 ft 446 kts 173°
2026-05-09 00:58 -0.52241 116.86077 37895 ft 445 kts 173°
2026-05-09 00:59 -0.58410 116.86755 37885 ft 445 kts 173°
2026-05-09 00:59 -0.64566 116.87432 37892 ft 445 kts 173°
2026-05-09 01:00 -0.70712 116.88109 37881 ft 444 kts 173°
2026-05-09 01:00 -0.76819 116.88780 37883 ft 443 kts 173°
2026-05-09 01:01 -0.82965 116.89457 37875 ft 443 kts 173°
2026-05-09 01:01 -0.89084 116.90129 37876 ft 442 kts 173°
2026-05-09 01:02 -0.95196 116.90802 37878 ft 441 kts 173°
2026-05-09 01:02 -1.01298 116.91473 37877 ft 441 kts 173°
2026-05-09 01:03 -1.07354 116.92139 37881 ft 440 kts 173°
2026-05-09 01:03 -1.13467 116.92810 37881 ft 440 kts 173°
2026-05-09 01:04 -1.19550 116.93480 37884 ft 440 kts 173°
2026-05-09 01:04 -1.25429 116.94949 37893 ft 437 kts 156°
2026-05-09 01:05 -1.30666 116.98016 37894 ft 437 kts 145°
2026-05-09 01:06 -1.38152 117.03196 37870 ft 438 kts 145°
2026-05-09 01:06 -1.43176 117.06642 37867 ft 439 kts 145°
2026-05-09 01:07 -1.48228 117.10078 37871 ft 440 kts 145°
2026-05-09 01:07 -1.53301 117.13519 37876 ft 441 kts 146°
2026-05-09 01:08 -1.58358 117.16949 37882 ft 442 kts 145°
2026-05-09 01:08 -1.63463 117.20412 37889 ft 444 kts 146°
2026-05-09 01:09 -1.68585 117.23887 37895 ft 445 kts 146°
2026-05-09 01:09 -1.73731 117.27378 37887 ft 447 kts 145°
2026-05-09 01:10 -1.78853 117.30854 37895 ft 448 kts 145°
2026-05-09 01:10 -1.84030 117.34367 37893 ft 449 kts 145°
2026-05-09 01:11 -1.89212 117.37884 37892 ft 449 kts 145°
2026-05-09 01:11 -1.94389 117.41398 37895 ft 449 kts 145°
2026-05-09 01:12 -1.99536 117.44891 37903 ft 448 kts 145°
2026-05-09 01:12 -2.04697 117.48394 37896 ft 447 kts 145°
2026-05-09 01:13 -2.09837 117.51884 37899 ft 446 kts 145°
2026-05-09 01:13 -2.14972 117.55371 37902 ft 445 kts 145°
2026-05-09 01:14 -2.20101 117.58854 37898 ft 445 kts 145°
2026-05-09 01:14 -2.25197 117.62313 37907 ft 444 kts 145°
2026-05-09 01:15 -2.30316 117.65790 37899 ft 444 kts 145°
2026-05-09 01:15 -2.35435 117.69266 37893 ft 445 kts 145°
2026-05-09 01:16 -2.40527 117.72725 37901 ft 445 kts 145°
2026-05-09 01:16 -2.45654 117.76208 37906 ft 446 kts 145°
2026-05-09 01:17 -2.53379 117.81456 37901 ft 448 kts 145°
2026-05-09 01:17 -2.58508 117.84941 37903 ft 449 kts 145°
2026-05-09 01:18 -2.63683 117.88457 37904 ft 450 kts 145°
2026-05-09 01:18 -2.68875 117.91985 37902 ft 452 kts 145°
2026-05-09 01:19 -2.74081 117.95523 37910 ft 452 kts 145°
2026-05-09 01:19 -2.79290 117.99064 37902 ft 453 kts 145°
2026-05-09 01:20 -2.84496 118.02603 37902 ft 452 kts 145°
2026-05-09 01:20 -2.89690 118.06087 37897 ft 452 kts 146°
2026-05-09 01:21 -2.94958 118.09507 37890 ft 451 kts 147°
2026-05-09 01:21 -3.00225 118.12917 37903 ft 450 kts 146°
2026-05-09 01:22 -3.05482 118.16334 37900 ft 450 kts 146°
2026-05-09 01:22 -3.10731 118.19753 37901 ft 449 kts 147°
2026-05-09 01:23 -3.15931 118.23144 37905 ft 449 kts 146°
2026-05-09 01:23 -3.21164 118.26556 37904 ft 449 kts 146°
2026-05-09 01:24 -3.26406 118.29975 37901 ft 449 kts 146°
2026-05-09 01:24 -3.31644 118.33390 37902 ft 449 kts 146°
2026-05-09 01:25 -3.36881 118.36806 37906 ft 449 kts 146°
2026-05-09 01:25 -3.42121 118.40224 37906 ft 449 kts 147°
2026-05-09 01:26 -3.47334 118.43624 37902 ft 449 kts 147°
2026-05-09 01:26 -3.52579 118.47047 37902 ft 449 kts 147°
2026-05-09 01:27 -3.57815 118.50464 37901 ft 449 kts 147°
2026-05-09 01:27 -3.63059 118.53887 37906 ft 449 kts 147°
2026-05-09 01:28 -3.68297 118.57306 37902 ft 449 kts 147°
2026-05-09 01:28 -3.73538 118.60727 37900 ft 449 kts 147°
2026-05-09 01:29 -3.78770 118.64144 37902 ft 449 kts 147°
2026-05-09 01:29 -3.83991 118.67553 37507 ft 456 kts 147°
2026-05-09 01:30 -3.86654 118.69293 37019 ft 456 kts 147°
2026-05-09 01:30 -3.89320 118.71034 36417 ft 456 kts 147°
2026-05-09 01:30 -3.91990 118.72778 35838 ft 456 kts 146°
2026-05-09 01:30 -3.94616 118.74494 35241 ft 458 kts 146°
2026-05-09 01:31 -3.97280 118.76234 34797 ft 455 kts 146°
2026-05-09 01:31 -3.99932 118.77967 34301 ft 453 kts 146°
2026-05-09 01:31 -4.02571 118.79690 33827 ft 452 kts 146°
2026-05-09 01:31 -4.04315 118.80831 33457 ft 451 kts 146°
2026-05-09 01:32 -4.06932 118.82541 32989 ft 448 kts 146°
2026-05-09 01:32 -4.09536 118.84242 32518 ft 445 kts 146°
2026-05-09 01:32 -4.12121 118.85931 32062 ft 442 kts 146°
2026-05-09 01:32 -4.14696 118.87614 31622 ft 439 kts 146°
2026-05-09 01:33 -4.17244 118.89279 31163 ft 436 kts 147°
2026-05-09 01:33 -4.19976 118.90581 30685 ft 435 kts 163°
2026-05-09 01:33 -4.22944 118.91047 30281 ft 433 kts 177°
2026-05-09 01:33 -4.25959 118.91066 29794 ft 431 kts 179°
2026-05-09 01:34 -4.28954 118.91031 29280 ft 428 kts 180°
2026-05-09 01:34 -4.31885 118.90988 28801 ft 425 kts 179°
2026-05-09 01:34 -4.34828 118.90955 28326 ft 422 kts 179°
2026-05-09 01:34 -4.37756 118.90935 27865 ft 419 kts 179°
2026-05-09 01:35 -4.40676 118.90924 27405 ft 416 kts 179°
2026-05-09 01:35 -4.43555 118.90921 26956 ft 413 kts 178°
2026-05-09 01:35 -4.46420 118.90921 26508 ft 410 kts 178°
2026-05-09 01:35 -4.49270 118.90922 26056 ft 408 kts 179°
2026-05-09 01:36 -4.52071 118.90922 25608 ft 407 kts 179°
2026-05-09 01:36 -4.54898 118.90923 25153 ft 406 kts 178°
2026-05-09 01:36 -4.57717 118.90923 24691 ft 405 kts 179°
2026-05-09 01:36 -4.60532 118.90923 24236 ft 404 kts 179°
2026-05-09 01:37 -4.63353 118.90922 23778 ft 403 kts 179°
2026-05-09 01:37 -4.66157 118.90921 23293 ft 403 kts 179°
2026-05-09 01:37 -4.68952 118.90921 22789 ft 401 kts 179°
2026-05-09 01:37 -4.71732 118.90920 22332 ft 398 kts 179°
2026-05-09 01:38 -4.74493 118.90920 21875 ft 395 kts 179°
2026-05-09 01:38 -4.77238 118.90920 21419 ft 392 kts 179°
2026-05-09 01:38 -4.79925 118.90922 20998 ft 390 kts 179°
2026-05-09 01:38 -4.82627 118.90923 20566 ft 387 kts 179°
2026-05-09 01:39 -4.85311 118.90924 20134 ft 384 kts 179°
2026-05-09 01:39 -4.87980 118.90924 19702 ft 382 kts 179°
2026-05-09 01:39 -4.90641 118.90924 19267 ft 380 kts 179°
2026-05-09 01:39 -4.93275 118.90923 18834 ft 378 kts 179°
2026-05-09 01:40 -4.95896 118.90923 18418 ft 376 kts 179°
2026-05-09 01:40 -4.98506 118.90923 17935 ft 374 kts 179°
2026-05-09 01:40 -5.01097 118.90922 17482 ft 371 kts 180°
2026-05-09 01:40 -5.03677 118.90921 17043 ft 368 kts 180°
2026-05-09 01:41 -5.06230 118.90920 16615 ft 365 kts 180°
2026-05-09 01:41 -5.08732 118.90920 16204 ft 363 kts 179°
2026-05-09 01:41 -5.11248 118.90920 15793 ft 360 kts 179°
2026-05-09 01:41 -5.13753 118.90920 15344 ft 359 kts 179°
2026-05-09 01:42 -5.16248 118.90920 14923 ft 358 kts 179°
2026-05-09 01:42 -5.18743 118.90920 14486 ft 357 kts 179°
2026-05-09 01:42 -5.21225 118.90920 14068 ft 356 kts 179°
2026-05-09 01:42 -5.23699 118.90964 13638 ft 355 kts 172°
2026-05-09 01:43 -5.26015 118.91716 13327 ft 346 kts 147°
2026-05-09 01:43 -5.27799 118.93225 13252 ft 327 kts 127°
2026-05-09 01:43 -5.28935 118.95137 13103 ft 316 kts 111°
2026-05-09 01:43 -5.29487 118.97240 12804 ft 311 kts 95°
2026-05-09 01:44 -5.29571 118.99394 12545 ft 306 kts 89°
2026-05-09 01:44 -5.29554 119.01495 12474 ft 296 kts 89°
2026-05-09 01:44 -5.29520 119.03530 12301 ft 289 kts 88°
2026-05-09 01:44 -5.29489 119.05517 12016 ft 288 kts 89°
2026-05-09 01:45 -5.29463 119.07528 11675 ft 288 kts 89°
2026-05-09 01:45 -5.29443 119.09568 11188 ft 294 kts 89°
2026-05-09 01:45 -5.29428 119.11621 10684 ft 294 kts 89°
2026-05-09 01:45 -5.29415 119.13688 10106 ft 297 kts 89°
2026-05-09 01:46 -5.29404 119.15762 9509 ft 298 kts 89°
2026-05-09 01:46 -5.29394 119.17843 8901 ft 299 kts 89°
2026-05-09 01:46 -5.29385 119.19929 8293 ft 299 kts 89°
2026-05-09 01:46 -5.29694 119.21981 7709 ft 299 kts 112°
2026-05-09 01:47 -5.30856 119.23660 7506 ft 293 kts 137°
2026-05-09 01:47 -5.32550 119.24727 7289 ft 290 kts 152°
2026-05-09 01:47 -5.34378 119.25555 7050 ft 287 kts 154°
2026-05-09 01:47 -5.36194 119.26343 6869 ft 281 kts 154°
2026-05-09 01:48 -5.37959 119.27101 6750 ft 273 kts 154°
2026-05-09 01:48 -5.39704 119.27842 6508 ft 271 kts 154°
2026-05-09 01:48 -5.41429 119.28573 6276 ft 268 kts 153°
2026-05-09 01:48 -5.42883 119.29657 5991 ft 260 kts 121°
2026-05-09 01:49 -5.43402 119.31334 5762 ft 253 kts 86°
2026-05-09 01:49 -5.42961 119.33029 5550 ft 252 kts 66°
2026-05-09 01:49 -5.42054 119.34535 5299 ft 254 kts 50°
2026-05-09 01:49 -5.40701 119.35683 5068 ft 256 kts 36°
2026-05-09 01:50 -5.39196 119.36640 4848 ft 257 kts 33°
2026-05-09 01:50 -5.37665 119.37575 4603 ft 258 kts 33°
2026-05-09 01:50 -5.36131 119.38518 4354 ft 258 kts 33°
2026-05-09 01:50 -5.34631 119.39454 4132 ft 256 kts 34°
2026-05-09 01:51 -5.33148 119.40387 4049 ft 246 kts 34°
2026-05-09 01:51 -5.31742 119.41275 4056 ft 230 kts 34°
2026-05-09 01:51 -5.30435 119.42101 4034 ft 213 kts 34°
2026-05-09 01:51 -5.29236 119.42860 4005 ft 195 kts 33°
2026-05-09 01:52 -5.28079 119.43543 3780 ft 190 kts 31°
2026-05-09 01:52 -5.26943 119.44171 3587 ft 183 kts 30°
2026-05-09 01:52 -5.25846 119.44775 3396 ft 176 kts 30°
2026-05-09 01:52 -5.24819 119.45358 3185 ft 174 kts 30°
2026-05-09 01:53 -5.23742 119.45934 2869 ft 175 kts 27°
2026-05-09 01:53 -5.22650 119.46483 2513 ft 177 kts 27°
2026-05-09 01:53 -5.21571 119.47030 2272 ft 169 kts 30°
2026-05-09 01:53 -5.20588 119.47615 2102 ft 158 kts 30°
2026-05-09 01:54 -5.19668 119.48230 1974 ft 162 kts 34°
2026-05-09 01:54 -5.18777 119.48858 1908 ft 149 kts 34°
2026-05-09 01:54 -5.17928 119.49384 1708 ft 145 kts 30°
2026-05-09 01:54 -5.17024 119.49893 1507 ft 150 kts 29°
2026-05-09 01:55 -5.16142 119.50401 1414 ft 146 kts 30°
2026-05-09 01:55 -5.15255 119.50933 1271 ft 152 kts 31°
2026-05-09 01:55 -5.14325 119.51467 1108 ft 156 kts 27°
2026-05-09 01:55 -5.13364 119.51998 972 ft 157 kts 30°
2026-05-09 01:56 -5.12447 119.52545 778 ft 151 kts 31°
2026-05-09 01:56 -5.11550 119.53057 533 ft 149 kts 30°
2026-05-09 01:56 -5.10643 119.53584 351 ft 152 kts 31°
2026-05-09 01:56 -5.09748 119.54099 190 ft 141 kts 32°
2026-05-09 01:57 -5.08908 119.54586 52 ft 144 kts 32°
2026-05-09 01:57 -5.08158 119.55024 39 ft 95 kts 30°
2026-05-09 01:57 -5.07788 119.55235 41 ft 23 kts 26°
2026-05-09 01:57 -5.07704 119.55226 38 ft 11 kts 309°
2026-05-09 01:58 -5.07670 119.55171 40 ft 9 kts 298°
2026-05-09 01:58 -5.07639 119.55115 38 ft 9 kts 301°
2026-05-09 01:58 -5.07608 119.55062 39 ft 9 kts 300°
2026-05-09 01:58 -5.07581 119.55008 40 ft 9 kts 285°
2026-05-09 01:59 -5.07608 119.54961 40 ft 8 kts 213°
2026-05-09 01:59 -5.07650 119.54936 40 ft 5 kts 206°
2026-05-09 01:59 -5.07670 119.54952 40 ft 4 kts 119°
2026-05-09 01:59 -5.07684 119.54976 40 ft 4 kts 119°
2026-05-09 02:00 -5.07692 119.54990 38 ft 1 kts 120°
2026-05-09 02:00 -5.07694 119.54993 39 ft 0 kts 120°